Time,TemperatureF,DewpointF,PressureIn,WindDirection,WindDirectionDegrees,WindSpeedMPH,WindSpeedGustMPH,Humidity,HourlyPrecipIn,Conditions,Clouds,dailyrainin,SoftwareType,DateUTC
2013-02-04 00:03:00,11.7,-0.7,29.03,ENE,68,0.0,0.0,57,0.00,,FEW,0.00,WeatherDisplay:10.37,2013-02-04 06:03:00,
2013-02-04 00:08:00,11.5,-0.8,29.03,ENE,68,0.0,0.0,57,0.00,,FEW,0.00,WeatherDisplay:10.37,2013-02-04 06:08:00,
2013-02-04 00:13:00,11.5,-0.8,29.03,ENE,68,0.0,0.0,57,0.00,,FEW,0.00,WeatherDisplay:10.37,2013-02-04 06:13:00,
2013-02-04 00:18:00,11.3,-1.0,29.03,ENE,68,0.0,0.0,57,0.00,,FEW,0.00,WeatherDisplay:10.37,2013-02-04 06:18:00,
2013-02-04 00:23:00,11.3,-1.0,29.03,ENE,68,0.0,0.0,57,0.00,,FEW,0.00,WeatherDisplay:10.37,2013-02-04 06:23:00,
2013-02-04 00:28:00,11.3,-1.0,29.03,ENE,68,0.0,0.0,57,0.00,,FEW,0.00,WeatherDisplay:10.37,2013-02-04 06:28:00,
2013-02-04 00:33:00,11.3,-1.0,29.03,ENE,68,0.0,0.0,57,0.00,,FEW,0.00,WeatherDisplay:10.37,2013-02-04 06:33:00,
2013-02-04 00:38:00,11.3,-1.0,29.03,ENE,68,0.0,0.0,57,0.00,,FEW,0.00,WeatherDisplay:10.37,2013-02-04 06:38:00,
2013-02-04 00:43:00,11.1,-1.2,29.03,ENE,68,0.0,0.0,57,0.00,,FEW,0.00,WeatherDisplay:10.37,2013-02-04 06:43:00,
2013-02-04 00:48:00,11.1,-1.2,29.03,ENE,68,0.0,0.0,57,0.00,,FEW,0.00,WeatherDisplay:10.37,2013-02-04 06:48:00,
2013-02-04 00:53:00,11.1,-1.2,29.03,ENE,68,0.0,0.0,57,0.00,,FEW,0.00,WeatherDisplay:10.37,2013-02-04 06:53:00,
2013-02-04 00:58:00,11.1,-1.2,29.03,ENE,68,0.0,0.0,57,0.00,,FEW,0.00,WeatherDisplay:10.37,2013-02-04 06:58:00,
2013-02-04 01:03:00,11.1,-1.2,29.03,ENE,68,0.0,0.0,57,0.00,,FEW,0.00,WeatherDisplay:10.37,2013-02-04 07:03:00,
2013-02-04 01:08:00,10.9,-1.3,29.03,ENE,68,0.0,0.0,57,0.00,,FEW,0.00,WeatherDisplay:10.37,2013-02-04 07:08:00,
2013-02-04 01:13:00,10.9,-1.3,29.03,ENE,68,0.0,0.0,57,0.00,,FEW,0.00,WeatherDisplay:10.37,2013-02-04 07:13:00,
2013-02-04 01:18:00,10.9,-1.3,29.03,ENE,68,0.0,0.0,57,0.00,,FEW,0.00,WeatherDisplay:10.37,2013-02-04 07:18:00,
2013-02-04 01:23:00,10.9,-1.3,29.03,ENE,68,0.0,0.0,57,0.00,,FEW,0.00,WeatherDisplay:10.37,2013-02-04 07:23:00,
2013-02-04 01:28:00,10.9,-1.3,29.03,ENE,68,0.0,0.0,57,0.00,,FEW,0.00,WeatherDisplay:10.37,2013-02-04 07:28:00,
2013-02-04 01:33:00,10.8,-1.5,29.03,ENE,68,0.0,0.0,57,0.00,,FEW,0.00,WeatherDisplay:10.37,2013-02-04 07:33:00,
2013-02-04 01:38:00,10.8,-1.5,29.03,ENE,68,0.0,0.0,57,0.00,,FEW,0.00,WeatherDisplay:10.37,2013-02-04 07:38:00,
2013-02-04 01:43:00,10.8,-1.5,29.03,ENE,68,0.0,0.0,57,0.00,,FEW,0.00,WeatherDisplay:10.37,2013-02-04 07:43:00,
2013-02-04 01:48:00,10.6,-1.7,29.03,ENE,68,0.0,0.0,57,0.00,,FEW,0.00,WeatherDisplay:10.37,2013-02-04 07:48:00,
2013-02-04 01:54:00,10.6,-1.7,29.03,ENE,68,0.0,0.0,57,0.00,,FEW,0.00,WeatherDisplay:10.37,2013-02-04 07:54:00,
2013-02-04 01:59:00,10.4,-1.8,29.03,ENE,68,0.0,0.0,57,0.00,,FEW,0.00,WeatherDisplay:10.37,2013-02-04 07:59:00,
2013-02-04 02:04:00,10.4,-1.8,29.03,ENE,68,0.0,0.0,57,0.00,,FEW,0.00,WeatherDisplay:10.37,2013-02-04 08:04:00,
2013-02-04 02:09:00,10.4,-1.8,29.03,ENE,68,0.0,0.0,57,0.00,,FEW,0.00,WeatherDisplay:10.37,2013-02-04 08:09:00,
2013-02-04 02:14:00,10.2,-2.0,29.03,ENE,68,0.0,0.0,57,0.00,,FEW,0.00,WeatherDisplay:10.37,2013-02-04 08:14:00,
2013-02-04 02:19:00,10.2,-2.0,29.03,ENE,68,0.0,0.0,57,0.00,,FEW,0.00,WeatherDisplay:10.37,2013-02-04 08:19:00,
2013-02-04 02:24:00,10.4,-1.8,29.03,ENE,68,0.0,0.0,57,0.00,,FEW,0.00,WeatherDisplay:10.37,2013-02-04 08:24:00,
2013-02-04 02:29:00,10.4,-1.8,29.03,ENE,68,0.0,0.0,57,0.00,,FEW,0.00,WeatherDisplay:10.37,2013-02-04 08:29:00,
2013-02-04 02:34:00,10.4,-1.8,29.03,ENE,68,0.0,0.0,57,0.00,,FEW,0.00,WeatherDisplay:10.37,2013-02-04 08:34:00,
2013-02-04 02:39:00,10.2,-2.0,29.03,ENE,68,0.0,0.0,57,0.00,,FEW,0.00,WeatherDisplay:10.37,2013-02-04 08:39:00,
2013-02-04 02:44:00,10.2,-2.0,29.03,ENE,68,0.0,0.0,57,0.00,,FEW,0.00,WeatherDisplay:10.37,2013-02-04 08:44:00,
2013-02-04 02:49:00,10.2,-2.0,29.03,ENE,68,0.0,0.0,57,0.00,,FEW,0.00,WeatherDisplay:10.37,2013-02-04 08:49:00,
2013-02-04 02:54:00,10.2,-2.0,29.03,ENE,68,0.0,0.0,57,0.00,,FEW,0.00,WeatherDisplay:10.37,2013-02-04 08:54:00,
2013-02-04 02:59:00,10.0,-2.2,29.03,ENE,68,0.0,0.0,57,0.00,,FEW,0.00,WeatherDisplay:10.37,2013-02-04 08:59:00,
2013-02-04 03:04:00,9.7,-2.5,29.03,ENE,68,0.0,0.0,57,0.00,,FEW,0.00,WeatherDisplay:10.37,2013-02-04 09:04:00,
2013-02-04 03:09:00,9.7,-2.5,29.03,ENE,68,0.0,0.0,57,0.00,,FEW,0.00,WeatherDisplay:10.37,2013-02-04 09:09:00,
2013-02-04 03:14:00,9.5,-2.7,29.03,ENE,68,0.0,0.0,57,0.00,,FEW,0.00,WeatherDisplay:10.37,2013-02-04 09:14:00,
2013-02-04 03:19:00,9.5,-2.7,29.03,NNW,338,3.5,3.5,57,0.00,,FEW,0.00,WeatherDisplay:10.37,2013-02-04 09:19:00,
2013-02-04 03:24:00,9.5,-2.7,29.03,ENE,68,3.8,3.8,57,0.00,,FEW,0.00,WeatherDisplay:10.37,2013-02-04 09:24:00,
2013-02-04 03:29:00,9.5,-2.7,29.03,NNE,22,2.3,2.3,57,0.00,,FEW,0.00,WeatherDisplay:10.37,2013-02-04 09:29:00,
2013-02-04 03:34:00,9.5,-2.7,29.06,NE,45,3.5,3.5,57,0.00,,FEW,0.00,WeatherDisplay:10.37,2013-02-04 09:34:00,
2013-02-04 03:39:00,9.5,-2.7,29.06,ENE,68,3.8,3.8,57,0.00,,FEW,0.00,WeatherDisplay:10.37,2013-02-04 09:39:00,
2013-02-04 03:44:00,9.5,-2.7,29.06,NNE,22,2.3,2.3,57,0.00,,FEW,0.00,WeatherDisplay:10.37,2013-02-04 09:44:00,
2013-02-04 03:49:00,9.5,-2.7,29.03,NNE,22,2.4,2.4,57,0.00,,FEW,0.00,WeatherDisplay:10.37,2013-02-04 09:49:00,
2013-02-04 03:54:00,9.5,-2.7,29.03,NNE,22,2.3,2.3,57,0.00,,FEW,0.00,WeatherDisplay:10.37,2013-02-04 09:54:00,
2013-02-04 03:59:00,9.5,-2.7,29.03,NNE,22,2.3,2.6,57,0.00,,FEW,0.00,WeatherDisplay:10.37,2013-02-04 09:59:00,
2013-02-04 04:04:00,9.5,-2.7,29.03,NE,45,2.3,2.3,57,0.00,,FEW,0.00,WeatherDisplay:10.37,2013-02-04 10:04:00,
2013-02-04 04:09:00,9.5,-2.7,29.03,NNE,22,2.3,2.3,57,0.00,,FEW,0.00,WeatherDisplay:10.37,2013-02-04 10:09:00,
2013-02-04 04:14:00,9.5,-2.7,29.03,NNE,22,2.3,2.3,57,0.00,,FEW,0.00,WeatherDisplay:10.37,2013-02-04 10:14:00,
2013-02-04 04:19:00,9.5,-2.7,29.03,NNE,22,2.3,2.3,57,0.00,,FEW,0.00,WeatherDisplay:10.37,2013-02-04 10:19:00,
2013-02-04 04:24:00,9.5,-2.7,29.03,NE,45,2.3,2.3,57,0.00,,FEW,0.00,WeatherDisplay:10.37,2013-02-04 10:24:00,
2013-02-04 04:29:00,9.5,-2.7,29.03,NNE,22,2.3,2.3,57,0.00,,FEW,0.00,WeatherDisplay:10.37,2013-02-04 10:29:00,
2013-02-04 04:34:00,9.5,-2.7,29.03,NE,45,1.1,1.1,57,0.00,,FEW,0.00,WeatherDisplay:10.37,2013-02-04 10:34:00,
2013-02-04 04:39:00,9.5,-2.7,29.03,NNE,22,1.4,1.4,57,0.00,,FEW,0.00,WeatherDisplay:10.37,2013-02-04 10:39:00,
2013-02-04 04:44:00,9.5,-2.7,29.03,ENE,68,1.1,0.0,57,0.00,,FEW,0.00,WeatherDisplay:10.37,2013-02-04 10:44:00,
2013-02-04 04:49:00,9.5,-2.7,29.03,ENE,68,2.3,2.3,57,0.00,,FEW,0.00,WeatherDisplay:10.37,2013-02-04 10:49:00,
2013-02-04 04:54:00,9.5,-2.7,29.03,ENE,68,0.0,0.0,57,0.00,,FEW,0.00,WeatherDisplay:10.37,2013-02-04 10:54:00,
2013-02-04 04:59:00,9.5,-2.7,29.03,NNE,22,2.3,0.0,57,0.00,,FEW,0.00,WeatherDisplay:10.37,2013-02-04 10:59:00,
2013-02-04 05:04:00,9.5,-2.7,29.03,ENE,68,0.0,0.9,57,0.00,,FEW,0.00,WeatherDisplay:10.37,2013-02-04 11:04:00,
2013-02-04 05:09:00,9.5,-2.7,29.03,NE,45,0.0,0.0,57,0.00,,FEW,0.00,WeatherDisplay:10.37,2013-02-04 11:09:00,
2013-02-04 05:14:00,9.5,-2.7,29.06,ENE,68,0.0,0.0,57,0.00,,FEW,0.00,WeatherDisplay:10.37,2013-02-04 11:14:00,
2013-02-04 05:19:00,9.5,-2.7,29.06,NE,45,0.0,0.0,57,0.00,,FEW,0.00,WeatherDisplay:10.37,2013-02-04 11:19:00,
2013-02-04 05:24:00,9.5,-2.7,29.06,NE,45,0.0,0.0,57,0.00,,FEW,0.00,WeatherDisplay:10.37,2013-02-04 11:24:00,
2013-02-04 05:29:00,9.5,-2.7,29.06,ENE,68,0.0,0.0,57,0.00,,FEW,0.00,WeatherDisplay:10.37,2013-02-04 11:29:00,
2013-02-04 05:34:00,9.5,-2.7,29.06,ENE,68,1.1,0.0,57,0.00,,FEW,0.00,WeatherDisplay:10.37,2013-02-04 11:34:00,
2013-02-04 05:39:00,9.5,-2.7,29.06,NE,45,0.9,0.0,57,0.00,,FEW,0.00,WeatherDisplay:10.37,2013-02-04 11:39:00,
2013-02-04 05:44:00,9.5,-2.7,29.06,ENE,68,0.0,0.0,57,0.00,,FEW,0.00,WeatherDisplay:10.37,2013-02-04 11:44:00,
2013-02-04 05:49:00,9.5,-2.7,29.06,ENE,68,0.0,0.0,57,0.00,,FEW,0.00,WeatherDisplay:10.37,2013-02-04 11:49:00,
2013-02-04 05:54:00,9.5,-2.7,29.06,ENE,68,0.0,0.0,57,0.00,,FEW,0.00,WeatherDisplay:10.37,2013-02-04 11:54:00,
2013-02-04 05:59:00,9.5,-2.7,29.09,ENE,68,0.0,0.0,57,0.00,,FEW,0.00,WeatherDisplay:10.37,2013-02-04 11:59:00,
2013-02-04 06:04:00,9.5,-2.7,29.09,ENE,68,0.0,0.0,57,0.00,,FEW,0.00,WeatherDisplay:10.37,2013-02-04 12:04:00,
2013-02-04 06:09:00,9.5,-2.7,29.09,ENE,68,0.0,0.0,57,0.00,,FEW,0.00,WeatherDisplay:10.37,2013-02-04 12:09:00,
2013-02-04 06:14:00,9.5,-2.7,29.09,NE,45,0.0,0.0,57,0.00,,FEW,0.00,WeatherDisplay:10.37,2013-02-04 12:14:00,
2013-02-04 06:19:00,9.5,-2.7,29.09,NE,45,0.0,0.0,57,0.00,,FEW,0.00,WeatherDisplay:10.37,2013-02-04 12:19:00,
2013-02-04 06:24:00,9.5,-2.7,29.09,NNE,22,0.0,0.0,57,0.00,,FEW,0.00,WeatherDisplay:10.37,2013-02-04 12:24:00,
2013-02-04 06:29:00,9.5,-2.7,29.09,NE,45,0.0,0.0,57,0.00,,FEW,0.00,WeatherDisplay:10.37,2013-02-04 12:29:00,
2013-02-04 06:34:00,9.5,-2.7,29.09,NE,45,0.0,0.0,57,0.00,,FEW,0.00,WeatherDisplay:10.37,2013-02-04 12:34:00,
2013-02-04 06:39:00,9.5,-2.7,29.09,NNE,22,1.1,0.0,57,0.00,,FEW,0.00,WeatherDisplay:10.37,2013-02-04 12:39:00,
2013-02-04 06:45:00,9.5,-2.7,29.09,NNE,22,2.4,0.0,57,0.00,,FEW,0.00,WeatherDisplay:10.37,2013-02-04 12:45:00,
2013-02-04 06:50:00,9.5,-2.7,29.09,NNW,338,2.3,2.3,57,0.00,,FEW,0.00,WeatherDisplay:10.37,2013-02-04 12:50:00,
2013-02-04 06:55:00,9.5,-2.7,29.09,NNW,338,2.4,2.4,57,0.00,,FEW,0.00,WeatherDisplay:10.37,2013-02-04 12:55:00,
2013-02-04 07:00:00,9.5,-2.7,29.09,NE,45,2.3,2.3,57,0.00,,FEW,0.00,WeatherDisplay:10.37,2013-02-04 13:00:00,
2013-02-04 07:05:00,9.5,-2.7,29.09,NNE,22,2.3,2.3,57,0.00,,FEW,0.00,WeatherDisplay:10.37,2013-02-04 13:05:00,
2013-02-04 07:10:00,9.5,-2.7,29.09,NNE,24,1.0,0.0,57,0.00,,FEW,0.00,WeatherDisplay:10.37,2013-02-04 13:10:00,
2013-02-04 07:15:00,9.5,-2.7,29.06,NNE,22,3.5,3.5,57,0.00,,FEW,0.00,WeatherDisplay:10.37,2013-02-04 13:15:00,
2013-02-04 07:20:00,9.5,-2.7,29.06,NNE,22,2.3,2.3,57,0.00,,FEW,0.00,WeatherDisplay:10.37,2013-02-04 13:20:00,
2013-02-04 07:25:00,9.5,-2.7,29.06,NE,37,1.0,0.0,57,0.00,,FEW,0.00,WeatherDisplay:10.37,2013-02-04 13:25:00,
2013-02-04 07:30:00,9.5,-2.7,29.06,North,0,3.5,3.5,57,0.00,,FEW,0.00,WeatherDisplay:10.37,2013-02-04 13:30:00,
2013-02-04 07:35:00,9.5,-2.7,29.06,NE,35,1.0,0.0,57,0.00,,FEW,0.00,WeatherDisplay:10.37,2013-02-04 13:35:00,
2013-02-04 07:40:00,9.5,-2.7,29.06,NE,51,1.0,0.0,57,0.00,,FEW,0.00,WeatherDisplay:10.37,2013-02-04 13:40:00,
2013-02-04 07:45:00,9.5,-2.7,29.09,NE,45,2.3,2.3,57,0.00,,FEW,0.00,WeatherDisplay:10.37,2013-02-04 13:45:00,
2013-02-04 07:50:00,9.5,-2.7,29.09,NE,45,2.3,2.3,57,0.00,,FEW,0.00,WeatherDisplay:10.37,2013-02-04 13:50:00,
2013-02-04 07:55:00,9.5,-2.7,29.09,NE,42,1.0,0.0,57,0.00,,FEW,0.00,WeatherDisplay:10.37,2013-02-04 13:55:00,
2013-02-04 08:00:00,9.5,-2.7,29.09,NNE,22,2.3,2.4,57,0.00,,FEW,0.00,WeatherDisplay:10.37,2013-02-04 14:00:00,
2013-02-04 08:05:00,9.5,-2.7,29.09,NNE,33,1.0,0.0,57,0.00,,FEW,0.00,WeatherDisplay:10.37,2013-02-04 14:05:00,
2013-02-04 08:10:00,9.5,-2.7,29.09,NE,45,1.1,1.1,57,0.00,,FEW,0.00,WeatherDisplay:10.37,2013-02-04 14:10:00,
2013-02-04 08:15:00,9.5,-2.7,29.06,NNE,22,1.6,0.0,57,0.00,,FEW,0.00,WeatherDisplay:10.37,2013-02-04 14:15:00,
2013-02-04 08:20:00,9.5,-2.7,29.06,NNE,13,2.0,0.0,57,0.00,,FEW,0.00,WeatherDisplay:10.37,2013-02-04 14:20:00,
2013-02-04 08:25:00,9.5,-2.7,29.06,NNE,22,1.6,1.6,57,0.00,,FEW,0.00,WeatherDisplay:10.37,2013-02-04 14:25:00,
2013-02-04 08:30:00,9.5,-2.7,29.06,NNE,22,3.5,3.5,57,0.00,,FEW,0.00,WeatherDisplay:10.37,2013-02-04 14:30:00,
2013-02-04 08:35:00,9.5,-2.7,29.06,NNE,24,1.0,0.0,57,0.00,,FEW,0.00,WeatherDisplay:10.37,2013-02-04 14:35:00,
2013-02-04 08:40:00,9.5,-2.7,29.06,NNE,22,1.1,0.0,57,0.00,,FEW,0.00,WeatherDisplay:10.37,2013-02-04 14:40:00,
2013-02-04 08:45:00,9.5,-2.7,29.09,NE,45,2.3,2.3,57,0.00,,FEW,0.00,WeatherDisplay:10.37,2013-02-04 14:45:00,
2013-02-04 08:50:00,9.5,-2.7,29.09,North,0,4.9,4.9,57,0.00,,FEW,0.00,WeatherDisplay:10.37,2013-02-04 14:50:00,
2013-02-04 08:55:00,9.5,-2.7,29.09,NNE,22,2.3,2.3,57,0.00,,FEW,0.00,WeatherDisplay:10.37,2013-02-04 14:55:00,
2013-02-04 09:00:00,9.5,-2.7,29.09,ESE,112,3.5,3.5,57,0.00,,FEW,0.00,WeatherDisplay:10.37,2013-02-04 15:00:00,
2013-02-04 09:05:00,9.5,-2.7,29.09,NNE,33,1.0,0.0,57,0.00,,FEW,0.00,WeatherDisplay:10.37,2013-02-04 15:05:00,
2013-02-04 09:10:00,9.5,-2.7,29.09,NNE,22,2.3,2.3,57,0.00,,FEW,0.00,WeatherDisplay:10.37,2013-02-04 15:10:00,
2013-02-04 09:15:00,9.5,-2.7,29.10,NNE,22,2.0,0.0,57,0.00,,FEW,0.00,WeatherDisplay:10.37,2013-02-04 15:15:00,
2013-02-04 09:20:00,9.5,-2.7,29.12,North,0,3.5,3.5,57,0.00,,FEW,0.00,WeatherDisplay:10.37,2013-02-04 15:20:00,
2013-02-04 09:25:00,9.5,-2.7,29.12,NNE,22,2.4,2.4,57,0.00,,FEW,0.00,WeatherDisplay:10.37,2013-02-04 15:25:00,
2013-02-04 09:30:00,9.5,-2.7,29.10,NNE,20,1.0,0.0,57,0.00,,FEW,0.00,WeatherDisplay:10.37,2013-02-04 15:30:00,
2013-02-04 09:35:00,9.5,-2.7,29.09,NNE,28,1.0,0.0,57,0.00,,FEW,0.00,WeatherDisplay:10.37,2013-02-04 15:35:00,
2013-02-04 09:40:00,9.5,-2.7,29.09,NE,34,1.0,0.0,57,0.00,,FEW,0.00,WeatherDisplay:10.37,2013-02-04 15:40:00,
2013-02-04 09:45:00,9.5,-2.7,29.12,North,0,3.5,3.5,57,0.00,,FEW,0.00,WeatherDisplay:10.37,2013-02-04 15:45:00,
2013-02-04 09:50:00,9.5,-2.7,29.12,NNE,22,3.5,3.5,57,0.00,,FEW,0.00,WeatherDisplay:10.37,2013-02-04 15:50:00,
2013-02-04 09:55:00,9.5,-2.7,29.12,North,8,2.0,0.0,57,0.00,,FEW,0.00,WeatherDisplay:10.37,2013-02-04 15:55:00,
2013-02-04 10:00:00,9.5,-2.7,29.12,NNE,22,3.5,3.5,57,0.00,,FEW,0.00,WeatherDisplay:10.37,2013-02-04 16:00:00,
2013-02-04 10:05:00,9.5,-2.7,29.12,NW,315,3.6,3.6,57,0.00,,FEW,0.00,WeatherDisplay:10.37,2013-02-04 16:05:00,
2013-02-04 10:10:00,9.5,-2.7,29.12,North,0,4.6,4.6,57,0.00,,FEW,0.00,WeatherDisplay:10.37,2013-02-04 16:10:00,
2013-02-04 10:15:00,9.5,-2.7,29.12,North,349,2.0,0.0,57,0.00,,FEW,0.00,WeatherDisplay:10.37,2013-02-04 16:15:00,
2013-02-04 10:20:00,9.5,-2.7,29.12,NNW,338,4.6,4.6,57,0.00,,FEW,0.00,WeatherDisplay:10.37,2013-02-04 16:20:00,
2013-02-04 10:25:00,9.5,-2.7,29.12,North,8,2.0,0.0,57,0.00,,FEW,0.00,WeatherDisplay:10.37,2013-02-04 16:25:00,
2013-02-04 10:30:00,9.5,-2.7,29.12,NE,45,2.3,2.3,57,0.00,,FEW,0.00,WeatherDisplay:10.37,2013-02-04 16:30:00,
2013-02-04 10:35:00,9.5,-2.7,29.12,North,0,3.5,3.5,57,0.00,,FEW,0.00,WeatherDisplay:10.37,2013-02-04 16:35:00,
2013-02-04 10:40:00,9.5,-2.7,29.12,North,6,2.0,0.0,57,0.00,,FEW,0.00,WeatherDisplay:10.37,2013-02-04 16:40:00,
2013-02-04 10:45:00,9.5,-2.7,29.12,NNE,22,4.6,4.6,57,0.00,,FEW,0.00,WeatherDisplay:10.37,2013-02-04 16:45:00,
2013-02-04 10:50:00,9.5,-2.7,29.12,North,0,2.3,2.3,57,0.00,,FEW,0.00,WeatherDisplay:10.37,2013-02-04 16:50:00,
2013-02-04 10:55:00,9.5,-2.7,29.12,NNE,21,2.0,0.0,57,0.00,,FEW,0.00,WeatherDisplay:10.37,2013-02-04 16:55:00,
2013-02-04 11:00:00,9.5,-2.7,29.12,SSW,202,0.0,0.0,57,0.00,,FEW,0.00,WeatherDisplay:10.37,2013-02-04 17:00:00,
2013-02-04 11:05:00,9.5,-2.7,29.12,NW,314,2.0,0.0,57,0.00,,FEW,0.00,WeatherDisplay:10.37,2013-02-04 17:05:00,
2013-02-04 11:10:00,9.5,-2.7,29.12,North,0,2.9,2.9,57,0.00,,FEW,0.00,WeatherDisplay:10.37,2013-02-04 17:10:00,
2013-02-04 11:15:00,9.5,-2.7,29.12,NNE,22,3.5,3.5,57,0.00,,FEW,0.00,WeatherDisplay:10.37,2013-02-04 17:15:00,
2013-02-04 11:20:00,9.5,-2.7,29.12,North,10,0.0,0.0,57,0.00,,FEW,0.00,WeatherDisplay:10.37,2013-02-04 17:20:00,
2013-02-04 11:25:00,9.5,-2.7,29.12,NNE,23,0.0,0.0,57,0.00,,FEW,0.00,WeatherDisplay:10.37,2013-02-04 17:25:00,
2013-02-04 11:30:00,9.5,-2.7,29.09,WNW,292,1.1,1.1,57,0.00,,FEW,0.00,WeatherDisplay:10.37,2013-02-04 17:30:00,
2013-02-04 11:35:00,9.5,-2.7,29.09,NW,320,0.0,0.0,57,0.00,,FEW,0.00,WeatherDisplay:10.37,2013-02-04 17:35:00,
2013-02-04 11:40:00,9.5,-2.7,29.09,NE,45,3.5,3.5,57,0.00,,FEW,0.00,WeatherDisplay:10.37,2013-02-04 17:40:00,
2013-02-04 11:45:00,9.5,-2.7,29.06,NNE,22,1.1,1.1,57,0.00,,FEW,0.00,WeatherDisplay:10.37,2013-02-04 17:45:00,
2013-02-04 11:50:00,27.3,7.2,29.06,SE,135,3.5,3.5,42,0.00,,FEW,0.00,WeatherDisplay:10.37,2013-02-04 17:50:00,
2013-02-04 11:55:00,28.8,8.0,29.06,SE,135,0.0,0.0,41,0.00,,FEW,0.00,WeatherDisplay:10.37,2013-02-04 17:55:00,
2013-02-04 12:00:00,29.5,8.1,29.09,ENE,68,2.6,2.6,40,0.00,,FEW,0.00,WeatherDisplay:10.37,2013-02-04 18:00:00,
2013-02-04 12:05:00,29.1,8.3,29.09,East,90,2.3,0.0,41,0.00,,FEW,0.00,WeatherDisplay:10.37,2013-02-04 18:05:00,
2013-02-04 12:10:00,28.9,6.5,29.09,ESE,112,3.5,3.5,38,0.00,,FEW,0.00,WeatherDisplay:10.37,2013-02-04 18:10:00,
2013-02-04 12:15:00,28.7,4.5,29.12,ESE,115,2.0,0.0,35,0.00,,FEW,0.00,WeatherDisplay:10.37,2013-02-04 18:15:00,
2013-02-04 12:20:00,28.0,3.9,29.12,ENE,68,1.1,1.1,35,0.00,,FEW,0.00,WeatherDisplay:10.37,2013-02-04 18:20:00,
2013-02-04 12:25:00,28.2,5.8,29.12,North,0,1.1,0.0,38,0.00,,FEW,0.00,WeatherDisplay:10.37,2013-02-04 18:25:00,
2013-02-04 12:30:00,27.3,3.8,29.09,NNW,348,2.0,0.0,36,0.00,,FEW,0.00,WeatherDisplay:10.37,2013-02-04 18:30:00,
2013-02-04 12:35:00,26.0,2.7,29.09,NW,308,1.0,0.0,36,0.00,,FEW,0.00,WeatherDisplay:10.37,2013-02-04 18:35:00,
2013-02-04 12:40:00,25.3,2.1,29.09,West,270,2.3,2.3,36,0.00,,FEW,0.00,WeatherDisplay:10.37,2013-02-04 18:40:00,
2013-02-04 12:45:00,26.1,2.7,29.09,West,264,0.0,0.0,36,0.00,,FEW,0.00,WeatherDisplay:10.37,2013-02-04 18:45:00,
2013-02-04 12:50:00,27.1,5.4,29.09,NNW,338,1.1,0.0,39,0.00,,FEW,0.00,WeatherDisplay:10.37,2013-02-04 18:50:00,
2013-02-04 12:55:00,26.6,3.2,29.09,South,189,2.0,0.0,36,0.00,,FEW,0.00,WeatherDisplay:10.37,2013-02-04 18:55:00,
2013-02-04 13:00:00,26.6,4.3,29.09,South,185,0.0,0.0,38,0.00,,FEW,0.00,WeatherDisplay:10.37,2013-02-04 19:00:00,
2013-02-04 13:05:00,26.4,3.0,29.09,North,0,4.0,4.0,36,0.00,,FEW,0.00,WeatherDisplay:10.37,2013-02-04 19:05:00,
2013-02-04 13:10:00,23.0,0.0,29.09,NNE,22,3.5,3.5,36,0.00,,FEW,0.00,WeatherDisplay:10.37,2013-02-04 19:10:00,
2013-02-04 13:15:00,23.0,1.1,29.09,North,1,1.0,0.0,38,0.00,,FEW,0.00,WeatherDisplay:10.37,2013-02-04 19:15:00,
2013-02-04 13:20:00,23.9,2.5,29.09,WSW,248,3.1,3.1,39,0.00,,FEW,0.00,WeatherDisplay:10.37,2013-02-04 19:20:00,
2013-02-04 13:25:00,23.0,1.7,29.09,NNW,338,3.5,3.5,39,0.00,,FEW,0.00,WeatherDisplay:10.37,2013-02-04 19:25:00,
2013-02-04 13:30:00,22.1,0.3,29.09,NW,305,2.0,0.0,38,0.00,,FEW,0.00,WeatherDisplay:10.37,2013-02-04 19:30:00,
2013-02-04 13:35:00,21.5,0.8,29.09,WNW,298,3.0,0.0,40,0.00,,FEW,0.00,WeatherDisplay:10.37,2013-02-04 19:35:00,
2013-02-04 13:40:00,21.2,1.6,29.09,NW,305,2.0,0.0,42,0.00,,FEW,0.00,WeatherDisplay:10.37,2013-02-04 19:40:00,
2013-02-04 13:45:00,21.2,0.6,29.09,WNW,293,2.0,0.0,40,0.00,,FEW,0.00,WeatherDisplay:10.37,2013-02-04 19:45:00,
2013-02-04 13:50:00,21.2,1.1,29.09,West,270,2.3,2.4,41,0.00,,FEW,0.00,WeatherDisplay:10.37,2013-02-04 19:50:00,
2013-02-04 13:55:00,20.3,-0.8,29.09,NNW,338,6.4,6.4,39,0.00,,FEW,0.00,WeatherDisplay:10.37,2013-02-04 19:55:00,
2013-02-04 14:00:00,19.6,-1.4,29.09,NNW,338,4.6,4.6,39,0.00,,FEW,0.00,WeatherDisplay:10.37,2013-02-04 20:00:00,
2013-02-04 14:05:00,19.7,-0.8,29.09,WNW,294,2.0,0.0,40,0.00,,FEW,0.00,WeatherDisplay:10.37,2013-02-04 20:05:00,
2013-02-04 14:10:00,19.4,-1.0,29.09,NNW,338,4.6,4.6,40,0.00,,FEW,0.00,WeatherDisplay:10.37,2013-02-04 20:10:00,
2013-02-04 14:15:00,19.4,0.0,29.06,WNW,292,3.5,3.5,42,0.00,,FEW,0.00,WeatherDisplay:10.37,2013-02-04 20:15:00,
2013-02-04 14:20:00,19.9,0.5,29.06,West,278,2.0,0.0,42,0.00,,FEW,0.00,WeatherDisplay:10.37,2013-02-04 20:20:00,
2013-02-04 14:25:00,20.3,0.8,29.06,WNW,292,1.0,0.0,42,0.00,,FEW,0.00,WeatherDisplay:10.37,2013-02-04 20:25:00,
2013-02-04 14:30:00,20.3,0.8,29.06,West,270,4.6,4.6,42,0.00,,FEW,0.00,WeatherDisplay:10.37,2013-02-04 20:30:00,
2013-02-04 14:35:00,20.2,0.2,29.06,WSW,255,2.0,0.0,41,0.00,,FEW,0.00,WeatherDisplay:10.37,2013-02-04 20:35:00,
2013-02-04 14:40:00,20.3,0.8,29.06,WSW,258,2.0,0.0,42,0.00,,FEW,0.00,WeatherDisplay:10.37,2013-02-04 20:40:00,
2013-02-04 14:45:00,19.8,0.3,29.03,SSW,202,3.8,3.8,42,0.00,,FEW,0.00,WeatherDisplay:10.37,2013-02-04 20:45:00,
2013-02-04 14:50:00,18.7,-0.1,29.03,SW,223,3.0,0.0,43,0.00,,FEW,0.00,WeatherDisplay:10.37,2013-02-04 20:50:00,
2013-02-04 14:55:00,19.4,0.5,29.03,SW,227,1.0,0.0,43,0.00,,FEW,0.00,WeatherDisplay:10.37,2013-02-04 20:55:00,
2013-02-04 15:00:00,17.8,-1.0,29.00,SSE,158,5.8,5.8,43,0.00,,FEW,0.00,WeatherDisplay:10.37,2013-02-04 21:00:00,
2013-02-04 15:05:00,17.6,-0.6,29.00,SSW,212,3.0,0.0,44,0.00,,FEW,0.00,WeatherDisplay:10.37,2013-02-04 21:05:00,
2013-02-04 15:10:00,17.8,-0.5,29.00,NNW,338,4.6,4.6,44,0.00,,FEW,0.00,WeatherDisplay:10.37,2013-02-04 21:10:00,
2013-02-04 15:15:00,18.1,-0.6,29.03,West,275,2.0,0.0,43,0.00,,FEW,0.00,WeatherDisplay:10.37,2013-02-04 21:15:00,
2013-02-04 15:20:00,17.8,-1.0,29.03,SSW,202,4.6,4.6,43,0.00,,FEW,0.00,WeatherDisplay:10.37,2013-02-04 21:20:00,
2013-02-04 15:25:00,18.1,-0.2,29.03,SW,225,3.5,3.5,44,0.00,,FEW,0.00,WeatherDisplay:10.37,2013-02-04 21:25:00,
2013-02-04 15:30:00,18.0,-0.3,29.03,WSW,248,3.5,3.5,44,0.00,,FEW,0.00,WeatherDisplay:10.37,2013-02-04 21:30:00,
2013-02-04 15:35:00,18.3,0.0,29.03,SSE,158,4.6,4.6,44,0.00,,FEW,0.00,WeatherDisplay:10.37,2013-02-04 21:35:00,
2013-02-04 15:40:00,19.8,0.9,29.03,South,187,2.0,0.0,43,0.00,,FEW,0.00,WeatherDisplay:10.37,2013-02-04 21:40:00,
2013-02-04 15:45:00,19.9,1.0,29.03,SSW,197,3.0,0.0,43,0.00,,FEW,0.00,WeatherDisplay:10.37,2013-02-04 21:45:00,
2013-02-04 15:50:00,19.0,0.2,29.03,SSW,212,2.0,0.0,43,0.00,,FEW,0.00,WeatherDisplay:10.37,2013-02-04 21:50:00,
2013-02-04 15:55:00,18.1,-0.7,29.03,SW,234,1.0,0.0,43,0.00,,FEW,0.00,WeatherDisplay:10.37,2013-02-04 21:55:00,
2013-02-04 16:00:00,16.9,-1.3,29.03,SW,233,2.0,0.0,44,0.00,,FEW,0.00,WeatherDisplay:10.37,2013-02-04 22:00:00,
2013-02-04 16:05:00,16.7,-1.5,29.03,South,180,2.3,2.3,44,0.00,,FEW,0.00,WeatherDisplay:10.37,2013-02-04 22:05:00,
2013-02-04 16:10:00,16.7,-1.5,29.03,SW,225,2.3,2.3,44,0.00,,FEW,0.00,WeatherDisplay:10.37,2013-02-04 22:10:00,
2013-02-04 16:15:00,16.7,-1.5,29.03,SW,225,1.0,0.0,44,0.00,,FEW,0.00,WeatherDisplay:10.37,2013-02-04 22:15:00,
2013-02-04 16:20:00,16.5,-1.2,29.03,SSW,202,3.5,3.5,45,0.00,,FEW,0.00,WeatherDisplay:10.37,2013-02-04 22:20:00,
2013-02-04 16:25:00,16.2,-1.5,29.03,SW,223,2.0,0.0,45,0.00,,FEW,0.00,WeatherDisplay:10.37,2013-02-04 22:25:00,
2013-02-04 16:30:00,16.0,-1.7,29.03,WSW,248,1.6,1.6,45,0.00,,FEW,0.00,WeatherDisplay:10.37,2013-02-04 22:30:00,
2013-02-04 16:35:00,15.8,-1.8,29.03,SW,225,3.5,3.5,45,0.00,,FEW,0.00,WeatherDisplay:10.37,2013-02-04 22:35:00,
2013-02-04 16:40:00,16.3,-1.3,29.03,SSW,202,1.4,0.0,45,0.00,,FEW,0.00,WeatherDisplay:10.37,2013-02-04 22:40:00,
2013-02-04 16:45:00,16.2,-1.5,29.03,WSW,238,2.0,0.0,45,0.00,,FEW,0.00,WeatherDisplay:10.37,2013-02-04 22:45:00,
2013-02-04 16:50:00,16.5,-1.2,29.03,West,270,2.3,2.3,45,0.00,,FEW,0.00,WeatherDisplay:10.37,2013-02-04 22:50:00,
2013-02-04 16:55:00,16.5,-1.2,29.03,WSW,243,1.0,0.0,45,0.00,,FEW,0.00,WeatherDisplay:10.37,2013-02-04 22:55:00,
2013-02-04 17:00:00,16.5,-1.2,29.00,West,263,1.0,0.0,45,0.00,,FEW,0.00,WeatherDisplay:10.37,2013-02-04 23:00:00,
2013-02-04 17:05:00,15.8,-1.8,29.00,SSW,202,2.6,2.6,45,0.00,,FEW,0.00,WeatherDisplay:10.37,2013-02-04 23:05:00,
2013-02-04 17:10:00,15.1,-2.5,29.00,WSW,254,1.0,0.0,45,0.00,,FEW,0.00,WeatherDisplay:10.37,2013-02-04 23:10:00,
2013-02-04 17:15:00,14.2,-3.3,29.03,WNW,292,2.6,2.6,45,0.00,,FEW,0.00,WeatherDisplay:10.37,2013-02-04 23:15:00,
2013-02-04 17:20:00,13.5,-4.0,29.03,SSW,202,2.3,2.3,45,0.00,,FEW,0.00,WeatherDisplay:10.37,2013-02-04 23:20:00,
2013-02-04 17:25:00,12.9,-4.5,29.03,WSW,244,0.0,0.0,45,0.00,,FEW,0.00,WeatherDisplay:10.37,2013-02-04 23:25:00,
2013-02-04 17:30:00,12.2,-5.1,29.03,West,270,2.6,2.6,45,0.00,,FEW,0.00,WeatherDisplay:10.37,2013-02-04 23:30:00,
2013-02-04 17:35:00,11.8,-5.5,29.03,West,269,1.0,0.0,45,0.00,,FEW,0.00,WeatherDisplay:10.37,2013-02-04 23:35:00,
2013-02-04 17:40:00,11.3,-6.0,29.03,West,261,1.0,0.0,45,0.00,,FEW,0.00,WeatherDisplay:10.37,2013-02-04 23:40:00,
2013-02-04 17:45:00,10.9,-6.3,29.03,West,270,2.3,2.3,45,0.00,,FEW,0.00,WeatherDisplay:10.37,2013-02-04 23:45:00,
2013-02-04 17:50:00,10.8,-6.5,29.03,WSW,238,1.0,0.0,45,0.00,,FEW,0.00,WeatherDisplay:10.37,2013-02-04 23:50:00,
2013-02-04 17:55:00,10.4,-6.8,29.03,South,179,0.0,0.0,45,0.00,,FEW,0.00,WeatherDisplay:10.37,2013-02-04 23:55:00,
2013-02-04 18:00:00,9.9,-7.3,29.00,SW,225,0.0,0.0,45,0.00,,FEW,0.00,WeatherDisplay:10.37,2013-02-05 00:00:00,
2013-02-04 18:05:00,9.6,-7.5,29.00,SSW,193,1.0,0.0,45,0.00,,FEW,0.00,WeatherDisplay:10.37,2013-02-05 00:05:00,
2013-02-04 18:10:00,9.3,-7.8,29.00,South,180,1.6,0.0,45,0.00,,FEW,0.00,WeatherDisplay:10.37,2013-02-05 00:10:00,
2013-02-04 18:15:00,9.3,-7.8,29.00,South,180,1.6,1.6,45,0.00,,FEW,0.00,WeatherDisplay:10.37,2013-02-05 00:15:00,
2013-02-04 18:20:00,9.5,-7.6,29.00,SSW,193,1.0,0.0,45,0.00,,FEW,0.00,WeatherDisplay:10.37,2013-02-05 00:20:00,
2013-02-04 18:25:00,9.3,-7.8,29.00,SSE,158,1.1,0.0,45,0.00,,FEW,0.00,WeatherDisplay:10.37,2013-02-05 00:25:00,
2013-02-04 18:30:00,9.5,-7.6,28.97,SSE,158,2.3,2.3,45,0.00,,FEW,0.00,WeatherDisplay:10.37,2013-02-05 00:30:00,
2013-02-04 18:35:00,9.5,-7.6,28.97,SSE,161,2.0,0.0,45,0.00,,FEW,0.00,WeatherDisplay:10.37,2013-02-05 00:35:00,
2013-02-04 18:40:00,9.5,-7.6,28.97,SSE,158,1.4,1.4,45,0.00,,FEW,0.00,WeatherDisplay:10.37,2013-02-05 00:40:00,
2013-02-04 18:45:00,9.5,-7.6,28.97,SSE,160,1.0,0.0,45,0.00,,FEW,0.00,WeatherDisplay:10.37,2013-02-05 00:45:00,
2013-02-04 18:50:00,9.5,-7.6,28.97,SSE,151,1.0,0.0,45,0.00,,FEW,0.00,WeatherDisplay:10.37,2013-02-05 00:50:00,
2013-02-04 18:55:00,9.7,-7.4,28.97,SE,135,4.6,4.6,45,0.00,,FEW,0.00,WeatherDisplay:10.37,2013-02-05 00:55:00,
2013-02-04 19:00:00,9.7,-7.4,28.97,SE,135,3.5,3.6,45,0.00,,FEW,0.00,WeatherDisplay:10.37,2013-02-05 01:00:00,
2013-02-04 19:05:00,10.0,-7.1,28.97,SSE,158,3.5,3.5,45,0.00,,FEW,0.00,WeatherDisplay:10.37,2013-02-05 01:05:00,
2013-02-04 19:10:00,10.0,-7.1,28.97,SSW,202,4.6,4.6,45,0.00,,FEW,0.00,WeatherDisplay:10.37,2013-02-05 01:10:00,
2013-02-04 19:15:00,10.0,-7.1,28.97,SSE,158,0.0,1.4,45,0.00,,FEW,0.00,WeatherDisplay:10.37,2013-02-05 01:15:00,
2013-02-04 19:20:00,9.9,-7.3,28.97,SSW,202,2.4,2.4,45,0.00,,FEW,0.00,WeatherDisplay:10.37,2013-02-05 01:20:00,
2013-02-04 19:25:00,10.0,-7.1,28.97,SE,135,2.4,2.6,45,0.00,,FEW,0.00,WeatherDisplay:10.37,2013-02-05 01:25:00,
2013-02-04 19:30:00,10.0,-7.1,29.00,South,180,3.8,3.8,45,0.00,,FEW,0.00,WeatherDisplay:10.37,2013-02-05 01:30:00,
2013-02-04 19:35:00,10.0,-7.1,29.00,SSE,158,2.3,2.4,45,0.00,,FEW,0.00,WeatherDisplay:10.37,2013-02-05 01:35:00,
2013-02-04 19:40:00,10.2,-6.9,29.00,SE,135,4.6,4.6,45,0.00,,FEW,0.00,WeatherDisplay:10.37,2013-02-05 01:40:00,
2013-02-04 19:45:00,10.2,-6.9,28.97,SSE,158,2.6,2.6,45,0.00,,FEW,0.00,WeatherDisplay:10.37,2013-02-05 01:45:00,
2013-02-04 19:50:00,10.4,-6.8,28.97,SE,135,3.8,3.8,45,0.00,,FEW,0.00,WeatherDisplay:10.37,2013-02-05 01:50:00,
2013-02-04 19:55:00,10.6,-6.6,28.97,SSE,158,3.6,4.5,45,0.00,,FEW,0.00,WeatherDisplay:10.37,2013-02-05 01:55:00,
2013-02-04 20:00:00,10.8,-6.5,28.94,South,180,4.9,4.9,45,0.00,,FEW,0.00,WeatherDisplay:10.37,2013-02-05 02:00:00,
2013-02-04 20:05:00,10.8,-6.5,28.94,SSE,158,4.6,4.6,45,0.00,,FEW,0.00,WeatherDisplay:10.37,2013-02-05 02:05:00,
2013-02-04 20:10:00,10.9,-6.3,28.94,SSE,158,4.6,4.6,45,0.00,,FEW,0.00,WeatherDisplay:10.37,2013-02-05 02:10:00,
2013-02-04 20:15:00,10.9,-6.3,28.94,SSE,158,4.6,4.6,45,0.00,,FEW,0.00,WeatherDisplay:10.37,2013-02-05 02:15:00,
2013-02-04 20:20:00,11.1,-6.1,28.94,SSW,202,4.6,4.6,45,0.00,,FEW,0.00,WeatherDisplay:10.37,2013-02-05 02:20:00,
2013-02-04 20:25:00,11.1,-6.1,28.94,SE,135,2.3,2.3,45,0.00,,FEW,0.00,WeatherDisplay:10.37,2013-02-05 02:25:00,
2013-02-04 20:30:00,11.1,-6.1,28.94,SSE,158,3.5,3.5,45,0.00,,FEW,0.00,WeatherDisplay:10.37,2013-02-05 02:30:00,
2013-02-04 20:35:00,11.1,-6.1,28.94,SSE,158,3.8,3.8,45,0.00,,FEW,0.00,WeatherDisplay:10.37,2013-02-05 02:35:00,
2013-02-04 20:40:00,11.3,-6.0,28.94,SSW,202,3.6,3.6,45,0.00,,FEW,0.00,WeatherDisplay:10.37,2013-02-05 02:40:00,
2013-02-04 20:45:00,11.3,-6.0,28.94,SE,135,3.6,3.6,45,0.00,,FEW,0.00,WeatherDisplay:10.37,2013-02-05 02:45:00,
2013-02-04 20:50:00,11.5,-5.8,28.94,SSE,158,3.5,3.5,45,0.00,,FEW,0.00,WeatherDisplay:10.37,2013-02-05 02:50:00,
2013-02-04 20:55:00,11.7,-5.6,28.94,South,180,3.5,3.5,45,0.00,,FEW,0.00,WeatherDisplay:10.37,2013-02-05 02:55:00,
2013-02-04 21:00:00,11.7,-5.6,28.94,SSE,158,3.5,3.5,45,0.00,,FEW,0.00,WeatherDisplay:10.37,2013-02-05 03:00:00,
2013-02-04 21:05:00,11.7,-5.6,28.94,South,180,2.4,2.4,45,0.00,,FEW,0.00,WeatherDisplay:10.37,2013-02-05 03:05:00,
2013-02-04 21:10:00,11.7,-5.6,28.94,South,180,3.5,3.5,45,0.00,,FEW,0.00,WeatherDisplay:10.37,2013-02-05 03:10:00,
2013-02-04 21:15:00,11.8,-5.5,28.94,SSE,158,2.9,3.1,45,0.00,,FEW,0.00,WeatherDisplay:10.37,2013-02-05 03:15:00,
2013-02-04 21:20:00,11.8,-5.5,28.94,WSW,248,2.9,2.9,45,0.00,,FEW,0.00,WeatherDisplay:10.37,2013-02-05 03:20:00,
2013-02-04 21:25:00,11.8,-5.5,28.94,SSE,158,3.5,3.5,45,0.00,,FEW,0.00,WeatherDisplay:10.37,2013-02-05 03:25:00,
2013-02-04 21:30:00,12.0,-5.3,28.94,SSW,202,4.6,4.6,45,0.00,,FEW,0.00,WeatherDisplay:10.37,2013-02-05 03:30:00,
2013-02-04 21:35:00,12.0,-5.3,28.94,SSE,158,3.5,3.5,45,0.00,,FEW,0.00,WeatherDisplay:10.37,2013-02-05 03:35:00,
2013-02-04 21:40:00,12.0,-5.3,28.94,South,180,5.8,5.8,45,0.00,,FEW,0.00,WeatherDisplay:10.37,2013-02-05 03:40:00,
2013-02-04 21:45:00,12.0,-5.3,28.91,SSE,158,8.1,8.1,45,0.00,,FEW,0.00,WeatherDisplay:10.37,2013-02-05 03:45:00,
2013-02-04 21:50:00,12.0,-5.3,28.91,South,180,4.6,4.6,45,0.00,,FEW,0.00,WeatherDisplay:10.37,2013-02-05 03:50:00,
2013-02-04 21:55:00,12.0,-5.3,28.91,SE,135,5.8,5.8,45,0.00,,FEW,0.00,WeatherDisplay:10.37,2013-02-05 03:55:00,
2013-02-04 22:00:00,12.0,-5.3,28.91,SSW,202,5.8,5.8,45,0.00,,FEW,0.00,WeatherDisplay:10.37,2013-02-05 04:00:00,
2013-02-04 22:05:00,12.0,-5.3,28.91,SSE,158,6.9,6.9,45,0.00,,FEW,0.00,WeatherDisplay:10.37,2013-02-05 04:05:00,
2013-02-04 22:10:00,12.0,-5.3,28.91,SSE,158,9.2,9.2,45,0.00,,FEW,0.00,WeatherDisplay:10.37,2013-02-05 04:10:00,
2013-02-04 22:15:00,12.0,-5.3,28.91,SE,135,6.9,6.9,45,0.00,,FEW,0.00,WeatherDisplay:10.37,2013-02-05 04:15:00,
2013-02-04 22:20:00,12.0,-5.3,28.91,SSE,158,8.1,8.1,45,0.00,,FEW,0.00,WeatherDisplay:10.37,2013-02-05 04:20:00,
2013-02-04 22:25:00,12.2,-5.1,28.91,SSE,158,9.2,9.2,45,0.00,,FEW,0.00,WeatherDisplay:10.37,2013-02-05 04:25:00,
2013-02-04 22:30:00,12.2,-5.1,28.91,SSW,202,5.9,6.2,45,0.00,,FEW,0.00,WeatherDisplay:10.37,2013-02-05 04:30:00,
2013-02-04 22:35:00,12.4,-5.0,28.91,SSE,158,10.4,10.4,45,0.00,,FEW,0.00,WeatherDisplay:10.37,2013-02-05 04:35:00,
2013-02-04 22:40:00,12.6,-4.8,28.91,SSE,158,6.9,6.9,45,0.00,,FEW,0.00,WeatherDisplay:10.37,2013-02-05 04:40:00,
2013-02-04 22:46:00,12.6,-4.8,28.88,South,180,5.8,5.8,45,0.00,,FEW,0.00,WeatherDisplay:10.37,2013-02-05 04:46:00,
2013-02-04 22:51:00,12.7,-4.6,28.88,SSE,158,5.8,5.8,45,0.00,,FEW,0.00,WeatherDisplay:10.37,2013-02-05 04:51:00,
2013-02-04 22:56:00,12.9,-4.5,28.88,SE,135,6.9,6.9,45,0.00,,FEW,0.00,WeatherDisplay:10.37,2013-02-05 04:56:00,
2013-02-04 23:00:00,12.9,-4.5,28.88,SSW,202,4.0,4.0,45,0.00,,FEW,0.00,WeatherDisplay:10.37,2013-02-05 05:00:00,
2013-02-04 23:05:00,13.3,-4.1,28.88,SSE,158,3.5,3.8,45,0.00,,FEW,0.00,WeatherDisplay:10.37,2013-02-05 05:05:00,
2013-02-04 23:10:00,13.5,-4.0,28.88,SE,135,9.2,9.2,45,0.00,,FEW,0.00,WeatherDisplay:10.37,2013-02-05 05:10:00,
2013-02-04 23:15:00,13.5,-4.0,28.82,SSE,158,9.7,9.7,45,0.00,,FEW,0.00,WeatherDisplay:10.37,2013-02-05 05:15:00,
2013-02-04 23:20:00,13.6,-3.8,28.82,SSE,158,9.7,9.7,45,0.00,,FEW,0.00,WeatherDisplay:10.37,2013-02-05 05:20:00,
2013-02-04 23:25:00,13.6,-3.8,28.82,SSE,158,9.2,9.2,45,0.00,,FEW,0.00,WeatherDisplay:10.37,2013-02-05 05:25:00,
2013-02-04 23:30:00,13.8,-3.6,28.85,SSE,158,5.8,7.6,45,0.00,,FEW,0.00,WeatherDisplay:10.37,2013-02-05 05:30:00,
2013-02-04 23:35:00,14.2,10.5,28.85,SE,135,5.9,7.8,85,0.00,,FEW,0.00,WeatherDisplay:10.37,2013-02-05 05:35:00,
2013-02-04 23:40:00,14.4,10.7,28.85,SE,135,13.8,13.8,85,0.00,,FEW,0.00,WeatherDisplay:10.37,2013-02-05 05:40:00,
2013-02-04 23:45:00,14.5,10.9,28.82,SSE,158,10.4,10.4,85,0.00,,FEW,0.00,WeatherDisplay:10.37,2013-02-05 05:45:00,
2013-02-04 23:50:00,14.7,11.0,28.82,SSE,158,6.9,6.9,85,0.00,,FEW,0.00,WeatherDisplay:10.37,2013-02-05 05:50:00,
2013-02-04 23:55:00,14.9,11.2,28.82,SSE,158,7.8,7.8,85,0.00,,FEW,0.00,WeatherDisplay:10.37,2013-02-05 05:55:00,